Location: LDNL
(36.4545°S, 141.6685°E)
Time: 08:27:24
(UTC+11:00)

Courier 1B - Pass Details

Date: 12 February 2023
Orbit: 962 x 1209 km, 28.3° (Epoch: 21 March)

Event Time Altitude Azimuth Distance (km) Brightness Sun altitude
Rises 22:48:41 0° 297° (WNW) 3,702 10.8 -24.5°
Reaches altitude 10° 22:51:28 10° 305° (NW) 2,783 10.0 -24.9°
Enters shadow 22:56:31 36° 349° (N) 1,586 8.3 -25.7°
